[[{"header":{"parameterUnit":"m.s-1","parameterCategory":1,"la1":30.2991,"la2":30.254,"lo1":-89.0895,"lo2":-89.0444,"dy":0.0017,"dx":0.0017,"nx":28,"ny":28,"refTime":"2024-08-22T09:00:00:Z","depth":0,"parameterNumber":2,"parameterNumberName":"U-component_of_WINDS"},"data":[0,0,0,0,0,0,0,0,0,0,0,0,0,0,0,0,0,0,0,0,0,0,0,0,0,0,0,0,0,0,0,0,0,0,0,0,0,0,0,0,0,0,0,0,0,0,0,0,0,0,0,0,0,0,0,0,0,0,-6.254,-6.254,0,-6.2574,-6.2574,-6.2575,-6.2428,-6.2424,-6.242,-6.2416,-6.245,-6.2455,-6.246,0,0,0,0,0,0,0,0,0,0,0,0,0,-6.2347,-6.2351,-6.2539,-6.254,-6.254,-6.2574,-6.2574,-6.2575,-6.2429,-6.2424,-6.2419,-6.2414,-6.2448,-6.2454,-6.246,0,0,0,0,0,0,0,0,0,0,0,0,0,-6.2411,-6.2352,-6.2539,-6.2472,-6.2466,-6.2574,-6.2574,-6.2575,-6.243,-6.2424,-6.2417,-6.2411,-6.2446,-6.2454,-6.2461,-6.2635,0,0,-6.2483,-6.2486,0,0,0,0,0,0,0,0,-6.2407,-6.2418,-6.2481,-6.2477,-6.247,-6.249,-6.2519,-6.2595,-6.2432,-6.2444,-6.2416,-6.2408,-6.2468,-6.2474,-6.2494,-6.2636,-6.2638,-6.2484,-6.2488,-6.2492,-6.2494,0,0,0,0,0,0,0,-6.2403,-6.2416,-6.2553,-6.2482,-6.2476,-6.2439,-6.2441,-6.2532,-6.2492,-6.2442,-6.2432,-6.2438,-6.2464,-6.2487,-6.2494,-6.2638,-6.2484,-6.249,-6.2495,-6.2498,-6.2924,-6.2931,0,0,0,0,0,0,-6.2408,-6.2413,-6.2552,-6.2554,-6.2422,-6.2448,-6.245,-6.249,-6.249,-6.2484,-6.2443,-6.2431,-6.2478,-6.2485,-6.2494,-6.2696,-6.2491,-6.2498,-6.2503,-6.2917,-6.2926,-6.2933,0,0,0,0,0,0,-6.2404,-6.2422,-6.255,-6.2481,-6.2494,-6.2458,-6.2504,-6.2494,-6.2517,-6.2491,-6.2483,-6.2474,-6.2473,-6.2484,-6.2601,-6.2696,-6.2502,-6.2508,-6.2909,-6.292,-6.2929,-6.3103,0,0,0,0,0,0,-6.2399,-6.2421,-6.2487,-6.2483,-6.2499,-6.2657,-6.251,-6.25,-6.253,-6.2515,-6.2518,-6.2513,-6.2469,-6.2591,-6.2608,-6.2702,-6.2514,-6.29,-6.2914,-6.2926,-6.3089,-6.3118,-6.3144,0,0,0,0,0,-6.2393,-6.2535,-6.2491,-6.2509,-6.258,-6.2663,-6.2671,-6.2618,-6.2539,-6.2604,-6.2588,-6.2512,-6.2684,-6.2604,-6.2622,-6.272,-6.2894,-6.291,-6.2925,-6.3077,-6.3113,-6.3143,0,0,0,0,0,0,-6.255,-6.2533,-6.2484,-6.2629,-6.2649,-6.2638,-6.2718,-6.2659,-6.27,-6.2684,-6.2616,-6.2619,-6.2747,-6.2745,-6.2657,-6.2888,-6.2775,-6.2795,-6.2884,-6.2918,-6.2944,-6.2941,-6.252,0,0,0,0,0,-6.2601,-6.267,-6.2651,-6.2781,-6.2793,-6.2755,-6.2789,-6.2747,-6.2764,-6.2771,-6.2763,-6.2782,-6.284,-6.2879,-6.2931,-6.3089,-6.3087,-6.3166,-6.3193,-6.3216,-6.3233,-6.3315,-6.3349,-6.2984,-6.2984,-6.2984,0,0,-6.2708,-6.2707,-6.2755,-6.2813,-6.2822,-6.2894,-6.2763,-6.2845,-6.2897,-6.2783,-6.2892,-6.2888,-6.2905,-6.3043,-6.3103,-6.3045,-6.3334,-6.3236,-6.3254,-6.3258,-6.3335,-6.3369,-6.34,-6.2995,-6.2993,-6.2991,0,0,-6.2939,-6.2946,-6.3054,-6.3067,-6.3084,-6.3058,-6.3085,-6.3084,-6.3076,-6.3185,-6.3101,-6.3163,-6.3264,-6.3279,-6.33,-6.3539,-6.347,-6.3558,-6.3699,-6.3781,-6.3809,-6.3834,-6.3917,-6.3948,-6.3576,-6.3576,-6.3576,0,-6.3069,-6.3174,-6.3117,-6.3205,-6.3232,-6.3134,-6.3242,-6.3258,-6.3291,-6.3312,-6.3248,-6.3373,-6.3378,-6.3517,-6.3575,-6.3597,-6.3623,-6.3555,-6.381,-6.3834,-6.3857,-6.3935,-6.3967,-6.3586,-6.3585,-6.3584,-6.3583,0,-6.3332,-6.3407,-6.3492,-6.3527,-6.3564,-6.3662,-6.3619,-6.3664,-6.362,-6.3601,-6.3713,-6.3715,-6.3765,-6.3796,-6.3754,-6.393,-6.3894,-6.3821,-6.3705,-6.3903,-6.3975,-6.4005,-6.3601,-6.3597,-6.3594,-6.3592,0,0,-6.3659,-6.3663,-6.3695,-6.3709,-6.3722,-6.3778,-6.3872,-6.3921,-6.396,-6.3987,-6.4063,-6.4152,-6.4085,-6.4109,-6.4068,-6.4139,-6.4326,-6.4057,-6.4057,-6.4105,-6.4518,-6.4571,-6.4607,-6.4282,-6.4288,-6.4292,-6.4516,0,-6.3883,-6.4042,-6.3995,-6.4155,-6.4222,-6.4131,-6.4212,-6.4229,-6.4214,-6.4269,-6.4252,-6.4316,-6.4224,-6.4237,-6.4305,-6.4289,-6.4407,-6.4273,-6.435,-6.4354,-6.4346,-6.4645,-6.47,-6.4911,-6.4544,-6.4549,-6.4553,0,-6.4165,-6.4203,-6.437,-6.4371,-6.4398,-6.4472,-6.4513,-6.4567,-6.4584,-6.4569,-6.4597,-6.4541,-6.4632,-6.4519,-6.4643,-6.4553,-6.4583,-6.458,-6.4587,-6.4589,-6.4463,-6.4653,-6.4977,-6.5008,-6.4597,-6.4594,-6.459,0,-6.4384,-6.4478,-6.4589,-6.4605,-6.4609,-6.4663,-6.4668,-6.4678,-6.4711,-6.4748,-6.4769,-6.4816,-6.4841,-6.4879,-6.4838,-6.476,-6.4968,-6.4852,-6.4956,-6.4957,-6.5001,-6.4998,-6.5332,-6.5026,-6.5026,-6.5025,-6.5024,0,-6.4637,-6.4742,-6.4687,-6.4755,-6.487,-6.4815,-6.4931,-6.4925,-6.4936,-6.5001,-6.4926,-6.4989,-6.4932,-6.499,-6.4958,-6.5065,-6.5078,-6.5067,-6.5056,-6.5072,-6.5073,-6.5087,-6.5071,-6.5033,-6.5031,-6.503,-6.5028,0,-6.4899,-6.4867,-6.4982,-6.4978,-6.4979,-6.5064,-6.506,-6.5123,-6.5104,-6.5187,-6.5204,-6.5174,-6.5238,-6.5201,-6.5267,-6.5246,-6.5384,-6.5355,-6.5378,-6.5369,-6.5475,-6.5464,-6.5827,-6.5871,-6.554,-6.5543,-6.5546,0,-6.5061,-6.5139,-6.5144,-6.5182,-6.5192,-6.5255,-6.5289,-6.5238,-6.5276,-6.5302,-6.5362,-6.542,-6.5463,-6.557,-6.5554,-6.5604,-6.5574,-6.5698,-6.5581,-6.5594,-6.5573,-6.5567,-6.5574,-6.572,-6.5724,-6.5727,-6.573,0,-6.5351,-6.5331,-6.5382,-6.5429,-6.5471,-6.5505,-6.5532,-6.5568,-6.5518,-6.5564,-6.5629,-6.5663,-6.5731,-6.5789,-6.5832,-6.5836,-6.5775,-6.5768,-6.5794,-6.5809,-6.5817,-6.5812,-6.5439,-6.5759,-6.5756,-6.5754,-6.5752,-6.5751,-6.5566,-6.5631,-6.5644,-6.5704,-6.5719,-6.5747,-6.5806,-6.5795,-6.5848,-6.5898,-6.5866,-6.5943,-6.5958,-6.6009,-6.6022,-6.6081,-6.6031,-6.607,-6.6079,-6.6088,-6.6102,-6.5811,-6.6089,-6.6088,-6.6087,-6.6086,-6.6086,0,-6.585,-6.5854,-6.591,-6.595,-6.5997,-6.5938,-6.5965,-6.6008,-6.6076,-6.6096,-6.6141,-6.6215,-6.6272,-6.6261,-6.6312,-6.6361,-6.6335,-6.6376,-6.637,-6.6372,-6.6145,-6.6115,-6.6397,-6.6397,-6.6397,-6.6397,-6.6397,-6.6397,-6.6003,-6.6109,-6.6092,-6.6206,-6.6209,-6.6283,-6.6304,-6.6329,-6.6345,-6.6431,-6.6478,-6.6471,-6.6479,-6.653,-6.6579,-6.6574,-6.6595,-6.6647,-6.6632,-6.6419,-6.6388,-6.6359,-6.6331,-6.6653,-6.6653,-6.6854,-6.6856,-6.6857]},{"header":{"parameterUnit":"m.s-1","parameterCategory":1,"la1":30.2991,"la2":30.254,"lo1":-89.0895,"lo2":-89.0444,"dy":0.0017,"dx":0.0017,"nx":28,"ny":28,"refTime":"2024-08-22T09:00:00:Z","depth":0,"parameterNumber":3,"parameterNumberName":"V-component_of_WINDS"},"data":[0,0,0,0,0,0,0,0,0,0,0,0,0,0,0,0,0,0,0,0,0,0,0,0,0,0,0,0,0,0,0,0,0,0,0,0,0,0,0,0,0,0,0,0,0,0,0,0,0,0,0,0,0,0,0,0,0,0,1.357,1.357,0,1.3592,1.3592,1.3593,1.3604,1.3604,1.3604,1.3604,1.3624,1.3625,1.3625,0,0,0,0,0,0,0,0,0,0,0,0,0,1.3536,1.3537,1.357,1.357,1.357,1.3592,1.3592,1.3593,1.3604,1.3604,1.3604,1.3604,1.3624,1.3625,1.3625,0,0,0,0,0,0,0,0,0,0,0,0,0,1.3554,1.3537,1.357,1.3579,1.358,1.3592,1.3592,1.3593,1.3604,1.3604,1.3604,1.3604,1.3624,1.3624,1.3625,1.363,0,0,1.3628,1.3628,0,0,0,0,0,0,0,0,1.3553,1.3555,1.3577,1.3578,1.3579,1.3595,1.3588,1.3605,1.3604,1.3595,1.3604,1.3604,1.3614,1.3616,1.362,1.3631,1.3631,1.3628,1.3628,1.3629,1.3629,0,0,0,0,0,0,0,1.3551,1.3554,1.3579,1.3577,1.3579,1.3581,1.3584,1.3591,1.3604,1.3595,1.3596,1.3599,1.3615,1.3619,1.362,1.3632,1.3628,1.3628,1.3629,1.3629,1.3649,1.3649,0,0,0,0,0,0,1.3549,1.3553,1.3578,1.3579,1.3566,1.3582,1.3585,1.359,1.3604,1.3606,1.3599,1.3599,1.3618,1.362,1.3621,1.3628,1.3629,1.3629,1.363,1.3649,1.3649,1.3649,0,0,0,0,0,0,1.3548,1.3551,1.3577,1.3566,1.357,1.3582,1.3588,1.359,1.3595,1.3607,1.3609,1.3601,1.3618,1.362,1.3628,1.3629,1.363,1.363,1.3649,1.3649,1.3649,1.3642,0,0,0,0,0,0,1.3547,1.3551,1.3553,1.3566,1.357,1.3584,1.3588,1.3591,1.3596,1.3597,1.3609,1.3611,1.3618,1.3627,1.3629,1.363,1.3631,1.3649,1.3649,1.3649,1.3642,1.3641,1.3641,0,0,0,0,0,1.3546,1.3549,1.3553,1.3556,1.3573,1.3584,1.3586,1.3595,1.3596,1.3598,1.3606,1.3611,1.3629,1.3628,1.363,1.3631,1.3649,1.3649,1.3649,1.3642,1.3641,1.3641,0,0,0,0,0,0,1.3533,1.3551,1.3555,1.3562,1.3572,1.3585,1.3588,1.3594,1.3602,1.3602,1.3612,1.3615,1.3622,1.3627,1.3626,1.3637,1.3639,1.364,1.3633,1.3633,1.3632,1.3631,1.3632,0,0,0,0,0,1.3532,1.3539,1.3554,1.3559,1.3563,1.3575,1.358,1.3586,1.3596,1.3599,1.3608,1.3616,1.3624,1.3629,1.3637,1.3643,1.3646,1.3645,1.3645,1.3645,1.3645,1.365,1.365,1.3649,1.3649,1.3649,0,0,1.3527,1.3538,1.3542,1.3557,1.3564,1.3572,1.3578,1.3585,1.3591,1.36,1.3609,1.3615,1.3626,1.3633,1.3637,1.3638,1.3646,1.3645,1.3645,1.3645,1.365,1.365,1.365,1.3649,1.3649,1.3649,0,0,1.3524,1.3533,1.3539,1.3547,1.356,1.3568,1.3569,1.3583,1.3588,1.3597,1.3604,1.3611,1.3624,1.3632,1.3637,1.3639,1.3644,1.3642,1.3639,1.3644,1.3644,1.3644,1.3645,1.3646,1.3642,1.3642,1.3642,0,1.3517,1.353,1.3541,1.3548,1.3555,1.3565,1.3571,1.3579,1.3593,1.3597,1.3598,1.3616,1.3624,1.3634,1.3635,1.3639,1.3641,1.364,1.3643,1.3644,1.3644,1.3645,1.3645,1.3641,1.3642,1.3642,1.3642,0,1.3521,1.353,1.3533,1.3548,1.3555,1.3561,1.3574,1.3579,1.3586,1.3594,1.3603,1.3613,1.3624,1.3627,1.3632,1.3638,1.3638,1.3642,1.3644,1.3643,1.3645,1.3645,1.3641,1.3641,1.3641,1.3641,0,0,1.3508,1.3531,1.3532,1.354,1.3555,1.3562,1.357,1.3581,1.3586,1.3596,1.3603,1.3615,1.3619,1.3625,1.3632,1.3636,1.3638,1.3639,1.3639,1.3638,1.3646,1.3643,1.3643,1.3642,1.3642,1.3642,1.3645,0,1.3507,1.3522,1.3534,1.3544,1.3553,1.3564,1.3571,1.3581,1.3589,1.3597,1.3606,1.3615,1.3619,1.3623,1.3628,1.3637,1.364,1.3637,1.3648,1.3648,1.3644,1.3644,1.3641,1.3643,1.3646,1.3646,1.3646,0,1.3507,1.3519,1.3531,1.3547,1.3551,1.3557,1.357,1.3577,1.359,1.3596,1.3604,1.3611,1.362,1.3622,1.3635,1.3633,1.3638,1.3643,1.3644,1.3644,1.3646,1.3645,1.3644,1.3645,1.3647,1.3647,1.3646,0,1.3498,1.3516,1.3525,1.3532,1.3551,1.3555,1.3563,1.3576,1.3583,1.3593,1.3598,1.3609,1.3615,1.3624,1.3634,1.3635,1.3646,1.3649,1.3651,1.3651,1.3652,1.3652,1.3652,1.3656,1.3656,1.3656,1.3656,0,1.3495,1.3502,1.3522,1.3527,1.3536,1.3549,1.3557,1.3566,1.3578,1.3585,1.3595,1.3603,1.3616,1.3625,1.3633,1.3643,1.3645,1.365,1.3652,1.3649,1.3648,1.3652,1.3652,1.3656,1.3656,1.3656,1.3656,0,1.3485,1.3498,1.351,1.3528,1.3533,1.3538,1.3554,1.356,1.357,1.358,1.3583,1.3598,1.3609,1.3621,1.3635,1.3641,1.365,1.3653,1.3646,1.3647,1.3649,1.3648,1.3651,1.3653,1.3656,1.3656,1.3655,0,1.3482,1.3488,1.3508,1.3514,1.3523,1.3533,1.3541,1.3554,1.3562,1.3578,1.3582,1.3595,1.3605,1.3622,1.3634,1.3645,1.3649,1.3649,1.365,1.3647,1.3649,1.3648,1.3649,1.3648,1.3648,1.3648,1.3648,0,1.3476,1.3483,1.3494,1.3508,1.3517,1.3529,1.354,1.3545,1.3561,1.3569,1.3582,1.359,1.3606,1.3618,1.3632,1.364,1.3646,1.3648,1.3649,1.3645,1.3641,1.3644,1.3645,1.3647,1.3647,1.3647,1.3647,1.3647,1.3469,1.3476,1.3491,1.3504,1.3514,1.3526,1.3533,1.3545,1.3555,1.357,1.3578,1.359,1.3604,1.3623,1.3631,1.3641,1.3643,1.3644,1.3644,1.3645,1.3644,1.364,1.3643,1.3643,1.3643,1.3643,1.3643,0,1.3464,1.3475,1.3487,1.3504,1.3514,1.3521,1.3535,1.3543,1.3554,1.3567,1.3577,1.3592,1.3604,1.3618,1.3631,1.3636,1.364,1.3639,1.3639,1.3641,1.3641,1.3639,1.3636,1.3636,1.3636,1.3636,1.3636,1.3636,1.3462,1.3474,1.3483,1.35,1.3511,1.3524,1.3532,1.3542,1.3553,1.3569,1.358,1.3589,1.3603,1.3617,1.3629,1.3633,1.3637,1.3635,1.364,1.364,1.3641,1.3641,1.3639,1.3636,1.3636,1.3639,1.3639,1.3639]}]]